Location: Coopersdale
(40.3556°N, 78.9372°W)
Time: 23:17:23
(UTC+00:00)

Vanguard 1 - Pass Details

Date: 21 January 2021
Orbit: 649 x 3834 km, 34.2° (Epoch: 06 March)

Event Time Altitude Azimuth Distance (km) Brightness Sun altitude
Rises 22:30:34 0° 273° (W) 7,723 15.9 -2.4°
Reaches altitude 10° 22:35:37 10° 271° (W) 6,852 15.7 -3.3°
Maximum altitude 22:59:03 68° 195° (SSW) 3,680 13.1 -7.5°
Drops below altitude 10° 23:16:05 10° 117° (ESE) 5,221 13.3 -10.5°
Sets 23:19:20 0° 115° (ESE) 5,888 13.6 -11.1°
